TheGetRank SiteMap Page 2861
Home 2811 2812 2813 2814 2815 2816 2817 2818 2819 2820 2821 2822 2823 2824 2825 2826 2827 2828 2829 2830 2831 2832 2833 2834 2835 2836 2837 2838 2839 2840 2841 2842 2843 2844 2845 2846 2847 2848 2849 2850 2851 2852 2853 2854 2855 2856 2857 2858 2859 2860 2861 2862 2863 2864 2865 2866 2867 2868 2869 2870 2871 2872 2873 2874 2875 2876 2877 2878 2879 2880 2881 2882 2883 2884 2885 2886 2887 2888 2889 2890 2891 2892 2893 2894 2895 2896 2897 2898 2899 2900 2901 2902 2903 2904 2905 2906 2907 2908 2909 2910 2911
S.NO. Website Pagerank Alexa Rank Last Updated
2860000 calcuttarowingclub.co.in 1 No Rank 2011-09-28 08:06:51
2860001 caincreekoutfitters.com 3 No Rank 2011-09-28 08:06:57
2860002 calavros.com 3 6287538 2011-09-28 08:06:58
2860003 cafe-spaeth.ch 3 No Rank 2011-09-28 08:07:03
2860004 cadillacgraphics.com 0 No Rank 2011-09-28 08:07:03
2860005 aussiegiftemporium.com 0 No Rank 2011-09-28 08:07:06
2860006 cabnoiecu.org 1 No Rank 2011-09-28 08:07:09
2860007 xp-cloud.net 2 No Rank 2011-09-28 08:07:11
2860008 cabitodemiedo.gentina.com.ar 0 20764881 2011-09-28 08:07:12
2860009 osiriswomen.info 0 20206350 2011-09-28 08:07:15
2860010 cabinetandcounterdepot.com 0 No Rank 2011-09-28 08:07:15
2860011 austellroofing.com 0 No Rank 2011-09-28 08:07:17
2860012 cabinet-designs.net 1 No Rank 2011-09-28 08:07:19
2860013 cabiduc.be 2 No Rank 2011-09-28 08:07:22
2860014 cabanatravel.ns.ca 3 8875321 2011-09-28 08:07:24
2860015 cabanapalms.com 0 No Rank 2011-09-28 08:07:26
2860016 caaenglish.com 0 No Rank 2011-09-28 08:07:27
2860017 index.com.my 0 4717950 2011-09-28 08:07:29
2860018 c6110-compressor.info 0 No Rank 2011-09-28 08:07:31
2860019 aussienaturalhealth.com 0 No Rank 2011-09-28 08:07:33
2860020 ddl-warez.in 1 17898 2011-09-28 08:07:36
2860021 austenquotes.com 3 15698050 2011-09-28 08:07:37
2860022 c4choppers.com 1 No Rank 2011-09-28 08:07:37
2860023 c21altavista.com 0 No Rank 2011-09-28 08:07:40
2860024 mitelforums.com 2 2910242 2011-09-28 08:07:43
2860025 c-mconstruction.com 0 No Rank 2011-09-28 08:07:44
2860026 austenwares.com 0 No Rank 2011-09-28 08:07:47
2860027 c-chat.net 0 No Rank 2011-09-28 08:07:49
2860028 gillettefusionproglide.info 0 No Rank 2011-09-28 08:07:50
2860029 quebec89.com 4 10372303 2011-09-28 08:07:56
2860030 bytheseacondos.com 0 No Rank 2011-09-28 08:07:58
2860031 bzlproductions.com 3 13501918 2011-09-28 08:07:59
2860032 cheaplimoservicesandrentals.com 1 9741110 2011-09-28 08:08:00
2860033 austgetty.com 0 No Rank 2011-09-28 08:08:01
2860034 www-pinkstroller.com 0 No Rank 2011-09-28 08:08:01
2860035 byoinc.com 0 No Rank 2011-09-28 08:08:08
2860036 byly.myforum.ro 1 102222 2011-09-28 08:08:12
2860037 buysurplusvalves.com 3 No Rank 2011-09-28 08:08:16
2860038 buyvideogames123.com 0 No Rank 2011-09-28 08:08:16
2860039 imafotos.com 2 3429097 2011-09-28 08:08:17
2860040 buymedalofhonor.net 0 No Rank 2011-09-28 08:08:20
2860041 buyguesscreditprograms.com 2 No Rank 2011-09-28 08:08:21
2860042 austingogo.com 4 10479362 2011-09-28 08:08:23
2860043 sumemrjing.blogspot.com 0 No Rank 2011-09-28 08:08:23
2860044 nintendodsixl.info 0 No Rank 2011-09-28 08:08:26
2860045 austincomingtogether.org 1 No Rank 2011-09-28 08:08:29
2860046 buybestpowertools.com 0 No Rank 2011-09-28 08:08:29
2860047 buyfriendlyfans.com 0 3460815 2011-09-28 08:08:30
2860048 accardio.com 0 No Rank 2011-09-28 08:08:31
2860049 austinapartmentadvantage.com 0 No Rank 2011-09-28 08:08:33
2860050 buybestpocketknives.com 0 No Rank 2011-09-28 08:08:33
2860051 butiktasexclusive.com 0 No Rank 2011-09-28 08:08:34
2860052 butchfurtman.net 2 No Rank 2011-09-28 08:08:38
2860053 busybeebathessentials.com 2 No Rank 2011-09-28 08:08:40
2860054 jmathfun.com 4 1686777 2011-09-28 08:08:43
2860055 austindwi--attorney.com 0 23908402 2011-09-28 08:08:45
2860056 bus-logistik.com 2 No Rank 2011-09-28 08:08:45
2860057 busanacantikku.com 0 No Rank 2011-09-28 08:08:47
2860058 burnveg.com 0 2727744 2011-09-28 08:08:48
2860059 burnblue.org 3 15022865 2011-09-28 08:08:51
2860060 austinhomeopath.com 2 15113700 2011-09-28 08:08:53
2860061 burlwoodonline.com 2 No Rank 2011-09-28 08:08:54
2860062 mescreen.com 4 269167 2011-09-28 08:08:54
2860063 burkeprocess.com 1 18264405 2011-09-28 08:08:55
2860064 aureliobrigh119058.webs.com 0 No Rank 2011-09-28 08:08:56
2860065 burincinema.com 1 4563689 2011-09-28 08:08:57
2860066 burggruber-patch.de 0 No Rank 2011-09-28 08:08:59
2860067 mumfordsons.info 0 No Rank 2011-09-28 08:09:02
2860068 bumrushproduction.com 0 No Rank 2011-09-28 08:09:04
2860069 doctorfmh.ch 6 1157107 2011-09-28 08:09:04
2860070 bureau-saveurs.com 2 20151137 2011-09-28 08:09:04
2860071 bulgarian-transport.com 1 No Rank 2011-09-28 08:09:11
2860072 desknets.com 5 152959 2011-09-28 08:09:12
2860073 bulentbudak.com 2 10663564 2011-09-28 08:09:14
2860074 bukittunggal.com 1 3152459 2011-09-28 08:09:17
2860075 buildingturbines.com 3 2538547 2011-09-28 08:09:19
2860076 bestdiapers.car-polishs.com 0 No Rank 2011-09-28 08:09:22
2860077 baeren-haus.de 1 10217122 2011-09-28 08:09:27
2860078 austinhomeconsultant.com 0 No Rank 2011-09-28 08:09:27
2860079 wiki.xen.org 5 92230 2011-09-28 08:09:34
2860080 nbasnapbackhats.info 0 10894788 2011-09-28 08:09:38
2860081 buildapedal.com 0 11201202 2011-09-28 08:09:47
2860082 austinishome.com 0 13685490 2011-09-28 08:09:48
2860083 buffaloiowa.org 4 No Rank 2011-09-28 08:09:50
2860084 budcupsg.com 1 No Rank 2011-09-28 08:09:55
2860085 texbuyer.net 0 No Rank 2011-09-28 08:09:57
2860086 buckheadpilates.com 0 No Rank 2011-09-28 08:09:59
2860087 buccoinfoserv.com 0 23911977 2011-09-28 08:10:02
2860088 budasbrightbeginnings.com 2 No Rank 2011-09-28 08:10:02
2860089 austininstylesalon.com 0 No Rank 2011-09-28 08:10:06
2860090 bubbasmarine.com 0 No Rank 2011-09-28 08:10:08
2860091 bucak.gov.tr 4 28237628 2011-09-28 08:10:09
2860092 getspots.org 2 No Rank 2011-09-28 08:10:14
2860093 btjinsurance.com 0 No Rank 2011-09-28 08:10:14
2860094 procaare.org 6 12203159 2011-09-28 08:10:20
2860095 buainsurance.com 3 6748914 2011-09-28 08:10:20
2860096 bswindekind.bsrumbeke.be 1 No Rank 2011-09-28 08:10:21
2860097 bsscatholic.org 2 No Rank 2011-09-28 08:10:24
2860098 bspnepal.org.np 4 No Rank 2011-09-28 08:10:26
2860099 austink9.webs.com 2 No Rank 2011-09-28 08:10:30
2860100 brphoto.com 3 18773951 2011-09-28 08:10:30
2860101 brownridgelaw.com 0 No Rank 2011-09-28 08:10:34
2860102 elsieapp.com 3 19565431 2011-09-28 08:10:37
2860103 brownslawncarellc.com 1 No Rank 2011-09-28 08:10:37
2860104 brotherhoodcamps.com 3 No Rank 2011-09-28 08:10:40
2860105 gjetostcheese.info 2 5781697 2011-09-28 08:10:45
2860106 austinraynor.com 0 No Rank 2011-09-28 08:10:46
2860107 brostein.b.uib.no 4 21357 2011-09-28 08:10:46
2860108 broadwellstudios.com 1 No Rank 2011-09-28 08:10:46
2860109 broadcastingsunny.com 2 No Rank 2011-09-28 08:10:49
2860110 britshop.net 0 10260307 2011-09-28 08:10:51
2860111 soyea.com.cn 5 3255768 2011-09-28 08:10:52
2860112 austinsignaturehomes.com 2 No Rank 2011-09-28 08:10:53
2860113 british-life.jp 2 2828808 2011-09-28 08:10:56
2860114 britishbrands.ru 2 13760511 2011-09-28 08:10:56
2860115 aquispas.com 5 No Rank 2011-09-28 08:10:56
2860116 aureliobrigh119.livejournal.com 0 86 2011-09-28 08:10:59
2860117 brinkercatering4u.com 0 No Rank 2011-09-28 08:11:00
2860118 brinia.gr 0 No Rank 2011-09-28 08:11:02
2860119 brilliantglobe.com 1 19426758 2011-09-28 08:11:07
2860120 brightonengineering.com 0 No Rank 2011-09-28 08:11:08
2860121 baezrealestate.com 3 10861882 2011-09-28 08:11:09
2860122 idealpetproduct.com 2 3597108 2011-09-28 08:11:13
2860123 brigadavzahranici.cz 2 No Rank 2011-09-28 08:11:15
2860124 bridalshowerspot.info 0 22542280 2011-09-28 08:11:15
2860125 sudoku10.net 2 2616661 2011-09-28 08:11:17
2860126 jblonstageiiip.info 0 19655848 2011-09-28 08:11:19
2860127 brickbuilder.write2me.nl 0 262600 2011-09-28 08:11:19
2860128 bafzfashion.com 0 No Rank 2011-09-28 08:11:21
2860129 briardklubben.com 2 No Rank 2011-09-28 08:11:21
2860130 brentwooddigital.us 4 9329800 2011-09-28 08:11:23
2860131 brennabowser.com 0 No Rank 2011-09-28 08:11:26
2860132 bagcentralstation.com 3 No Rank 2011-09-28 08:11:28
2860133 breezecycle.com 1 23678457 2011-09-28 08:11:29
2860134 breathingspacecounseling.com 0 No Rank 2011-09-28 08:11:30
2860135 stiteler.com 0 No Rank 2011-09-28 08:11:32
2860136 brconstructioninc.com 1 No Rank 2011-09-28 08:11:35
2860137 bagel-shops.com 0 No Rank 2011-09-28 08:11:37
2860138 breastinvestigators.com 2 1858685 2011-09-28 08:11:37
2860139 brcfootball.com 0 13184153 2011-09-28 08:11:39
2860140 susanben.net 0 No Rank 2011-09-28 08:11:42
2860141 brausam-arbeitsschutz.de 0 No Rank 2011-09-28 08:11:45
2860142 bravoure.com 2 No Rank 2011-09-28 08:11:45
2860143 austinsluxuryliving.com 0 23298079 2011-09-28 08:11:47
2860144 brasslanternstore.com 1 19257304 2011-09-28 08:11:48
2860145 sms.jn.sd.cn 0 51551 2011-09-28 08:11:50
2860146 brantfordsrealtor.com 1 No Rank 2011-09-28 08:11:51
2860147 brantfordgraphicdesigners.com 3 No Rank 2011-09-28 08:11:53
2860148 njstar.info 0 No Rank 2011-09-28 08:11:54
2860149 bransonfashionhouse.com 0 No Rank 2011-09-28 08:11:59
2860150 austinsmilecreations.com 2 7416997 2011-09-28 08:12:00
2860151 brandweerhunsel.nl 3 No Rank 2011-09-28 08:12:02
2860152 bransonhotels4less.com 1 7099250 2011-09-28 08:12:04
2860153 furniverse.com 0 No Rank 2011-09-28 08:12:07
2860154 psl-fm.co.uk 3 No Rank 2011-09-28 08:12:09
2860155 brandingwithbrains.org 0 11706462 2011-09-28 08:12:12
2860156 austintxdentist.com 2 No Rank 2011-09-28 08:12:13
2860157 folklure.org 0 No Rank 2011-09-28 08:12:16
2860158 brandenise.it 2 22655210 2011-09-28 08:12:18
2860159 brandingirononline.info 4 3599645 2011-09-28 08:12:19
2860160 brampton.ontariotenants.ca 5 195253 2011-09-28 08:12:22
2860161 is.farice.is 4 5093544 2011-09-28 08:12:24
2860162 braininjspecialists.com 1 No Rank 2011-09-28 08:12:24
2860163 bradburne.org 4 27995361 2011-09-28 08:12:27
2860164 brainbody.org 4 No Rank 2011-09-28 08:12:28
2860165 bradblumenthal.com 2 No Rank 2011-09-28 08:12:31
2860166 austms.org.au 7 4652178 2011-09-28 08:12:32
2860167 mainlinesigns.com 1 26079015 2011-09-28 08:12:32
2860168 bpmarketinggroup.com 3 19687340 2011-09-28 08:12:36
2860169 boystoday.nl 0 No Rank 2011-09-28 08:12:46
2860170 boysof61.org 2 14698578 2011-09-28 08:12:46
2860171 australianacademyoffengshui.com.au 2 No Rank 2011-09-28 08:12:46
2860172 my.episd.org 4 494482 2011-09-28 08:12:49
2860173 boxb-brands.com 0 No Rank 2011-09-28 08:12:49
2860174 boxofdanger.com 4 2595848 2011-09-28 08:12:49
2860175 australiatourism.co.in 0 No Rank 2011-09-28 08:12:53
2860176 box.inews.hu 2 394930 2011-09-28 08:12:55
2860177 pizzamaxx.ro 2 11181701 2011-09-28 08:12:56
2860178 bowltrol.net 1 No Rank 2011-09-28 08:12:58
2860179 koppel.com.br 0 No Rank 2011-09-28 08:12:59
2860180 bovabakery.com 1 No Rank 2011-09-28 08:13:00
2860181 australiadating.net 3 17088665 2011-09-28 08:13:02
2860182 bourbon-immobilier.com 2 6186352 2011-09-28 08:13:03
2860183 boundaryabstract.com 2 No Rank 2011-09-28 08:13:06
2860184 aureliobrigh119.xanga.com 0 2763 2011-09-28 08:13:07
2860185 status.vr.org 3 295326 2011-09-28 08:13:08
2860186 mdacompactv.info 0 17633398 2011-09-28 08:13:08
2860187 australiatourpackages.co.in 0 No Rank 2011-09-28 08:13:12
2860188 bossesmattor.se 3 5880232 2011-09-28 08:13:13
2860189 bossertcontracting.com 0 17047179 2011-09-28 08:13:14
2860190 enironorge.no 7 6499245 2011-09-28 08:13:16
2860191 boss-playa.com 2 3655178 2011-09-28 08:13:18
2860192 australiauncovered.com 3 14687658 2011-09-28 08:13:22
2860193 borneopharmacy.com 2 No Rank 2011-09-28 08:13:22
2860194 capital-office.com 3 18264435 2011-09-28 08:13:24
2860195 bestweddingsongs.sweetlovesite.com 0 1257552 2011-09-28 08:13:25
2860196 bloggerhq.net 3 307036 2011-09-28 08:13:25
2860197 bordergatebaptist.org 1 No Rank 2011-09-28 08:13:26
2860198 boot-camp.jp 3 3864231 2011-09-28 08:13:28
2860199 australiaworkingholidayvisas.co.uk 2 7148819 2011-09-28 08:13:31
2860200 boonechurchofchrist.org 2 No Rank 2011-09-28 08:13:35
2860201 boostenrats.nl 1 No Rank 2011-09-28 08:13:35
2860202 cyber-shotdigitalcamerahx100v.info 0 No Rank 2011-09-28 08:13:37
2860203 austriandeathmachine.com 3 No Rank 2011-09-28 08:13:38
2860204 allred58.com 0 2495845 2011-09-28 08:13:38
2860205 booksonlineclassifieds.com 0 No Rank 2011-09-28 08:13:40
2860206 bonterrahomes.com 3 No Rank 2011-09-28 08:13:42
2860207 pfaltzgraffreplacements.info 0 12429739 2011-09-28 08:13:44
2860208 bonniesteiger.com 2 6874926 2011-09-28 08:13:45
2860209 dfwwholesalesecuritycctvelectronics.com 0 12217326 2011-09-28 08:13:47
2860210 sdwhyp.cn 2 11092549 2011-09-28 08:13:47
2860211 bonbonbode.lv 2 18263163 2011-09-28 08:13:50
2860212 bondodo.fr 0 No Rank 2011-09-28 08:13:52
2860213 bommaritobakery.com 2 9699245 2011-09-28 08:13:53
2860214 bombaycakes.com 1 No Rank 2011-09-28 08:13:57
2860215 boliocustomhomes.com 0 No Rank 2011-09-28 08:13:58
2860216 autadmobile.cz 1 No Rank 2011-09-28 08:14:01
2860217 bolderads.com 0 No Rank 2011-09-28 08:14:02
2860218 coppel.com.ar 1 2433333 2011-09-28 08:14:06
2860219 boisestate-fans.com 1 No Rank 2011-09-28 08:14:12
2860220 autanadalkoveovladani.cz 1 17051898 2011-09-28 08:14:13
2860221 boeschhuerlimann.ch 2 No Rank 2011-09-28 08:14:17
2860222 syaivo.com.ua 2 6124882 2011-09-28 08:14:18
2860223 autechllc.com 0 No Rank 2011-09-28 08:14:19
2860224 eherenman.com 0 No Rank 2011-09-28 08:14:23
2860225 bodymindnlp.com 0 No Rank 2011-09-28 08:14:23
2860226 authentic-immo.com 2 No Rank 2011-09-28 08:14:26
2860227 bodyguardcz.cz 1 24347734 2011-09-28 08:14:26
2860228 rudergert.info 0 No Rank 2011-09-28 08:14:27
2860229 wsldy.com 2 2203201 2011-09-28 08:14:33
2860230 tsfrajeri.com 0 No Rank 2011-09-28 08:14:35
2860231 boldasia.com 2 No Rank 2011-09-28 08:14:37
2860232 rodolfosteve25.imagekind.com 0 17060 2011-09-28 08:14:38
2860233 authentic-nikeshoes.com 0 16289131 2011-09-28 08:14:39
2860234 cyber-shotdigitalcameratx100v.info 0 No Rank 2011-09-28 08:14:40
2860235 tcurse.blog.com 0 1087 2011-09-28 08:14:47
2860236 bobbisteam.com 0 No Rank 2011-09-28 08:14:47
2860237 bob4naperville.com 1 No Rank 2011-09-28 08:14:51
2860238 authenticcandles.com 0 No Rank 2011-09-28 08:14:52
2860239 bobo126.com 1 12968030 2011-09-28 08:14:53
2860240 speechtml.com 0 No Rank 2011-09-28 08:14:56
2860241 bnfhobbyfarmnrabbitry.net 1 9439859 2011-09-28 08:14:57
2860242 boaitex.com 0 No Rank 2011-09-28 08:14:59
2860243 authority-gaming.cz 2 No Rank 2011-09-28 08:15:01
2860244 otcgenesyssoftware.info 0 No Rank 2011-09-28 08:15:02
2860245 clickthru.net 3 125346 2011-09-28 08:15:07
2860246 online-jewelry-diamond-store.com 1 4734654 2011-09-28 08:15:08
2860247 blurayplayersoftware.net 1 3666064 2011-09-28 08:15:09
2860248 bmczone.com 0 No Rank 2011-09-28 08:15:12
2860249 blueribbonrealtyinc.com 2 No Rank 2011-09-28 08:15:13
2860250 authorized-appliance.com 2 21546565 2011-09-28 08:15:16
2860251 bluelinecampaigns.com 3 No Rank 2011-09-28 08:15:17
2860252 abhidharma.ru 2 650547 2011-09-28 08:15:19
2860253 blueknightsvaxvii.com 3 No Rank 2011-09-28 08:15:22
2860254 bluekings.ch 1 No Rank 2011-09-28 08:15:23
2860255 dmc-fh25kreview.info 0 No Rank 2011-09-28 08:15:24
2860256 bluecreekconst.com 1 No Rank 2011-09-28 08:15:25
2860257 bluechick.com 1 22759042 2011-09-28 08:15:26
2860258 bbs.xbaodi.com 4 495481 2011-09-28 08:15:27
2860259 autinwright.com 0 No Rank 2011-09-28 08:15:29
2860260 bluebees.de.vu 2 No Rank 2011-09-28 08:15:31
2860261 bloomingbabiesboutique.com 0 No Rank 2011-09-28 08:15:32
2860262 sonofcitation.info 0 No Rank 2011-09-28 08:15:34
2860263 blogturistico.com 4 871377 2011-09-28 08:15:37
2860264 bloodsoakedanaltract.com 0 No Rank 2011-09-28 08:15:38
2860265 sholatadalahjalanmenujusurga.blogspot.com 0 24724152 2011-09-28 08:15:43
2860266 blog.sinaia.se 1 20421431 2011-09-28 08:15:46
2860267 blog.urbact.eu 6 2415407 2011-09-28 08:15:46
2860268 soyeapark.com 5 No Rank 2011-09-28 08:15:47
2860269 blfp.net 1 No Rank 2011-09-28 08:15:53
2860270 bleueblood.com 1 3962504 2011-09-28 08:15:57
2860271 blessingsnqo.net 3 No Rank 2011-09-28 08:15:58
2860272 healthyskincarebeauty.com 0 4822329 2011-09-28 08:15:59
2860273 bleechmagazine.com 2 19400938 2011-09-28 08:16:04
2860274 authorized-appliance.net 1 20048297 2011-09-28 08:16:07
2860275 blazemktg.com 2 11793914 2011-09-28 08:16:09
2860276 blaszaki.net 0 5628422 2011-09-28 08:16:10
2860277 dmcfh25k.info 0 No Rank 2011-09-28 08:16:10
2860278 reoshortbuyer.com 0 10880074 2011-09-28 08:16:12
2860279 blakebands.org 3 No Rank 2011-09-28 08:16:13
2860280 blackpearlclassicequines.com 1 19562482 2011-09-28 08:16:17
2860281 arabictelephone.com 0 11825416 2011-09-28 08:16:21
2860282 blackfridayspecials.com 2 22817837 2011-09-28 08:16:21
2860283 blackmarkethair.com 1 No Rank 2011-09-28 08:16:21
2860284 blackfriday-sale.net 0 No Rank 2011-09-28 08:16:26
2860285 black-prophet.com 2 No Rank 2011-09-28 08:16:27
2860286 bjusedautoparts.net 2 24247251 2011-09-28 08:16:31
2860287 bizpromobureau.com 0 No Rank 2011-09-28 08:16:32
2860288 biwa-oumi.com 1 8508821 2011-09-28 08:16:38
2860289 bistro33nyc.com 2 No Rank 2011-09-28 08:16:39
2860290 bistro-columbus.com 3 9412047 2011-09-28 08:16:45
2860291 citics.com.cn 6 382795 2011-09-28 08:16:49
2860292 bisonfarm.se 2 No Rank 2011-09-28 08:16:50
2860293 bisnistasly.com 0 26983954 2011-09-28 08:16:50
2860294 institutefortruth.org 2 4131064 2011-09-28 08:16:50
2860295 birksiregermanshepherds.com 1 No Rank 2011-09-28 08:16:52
2860296 birdmanmusic.net 0 No Rank 2011-09-28 08:16:56
2860297 birdhouses-r-us.com 0 No Rank 2011-09-28 08:16:57
2860298 birdgroupconstruction.com 0 No Rank 2011-09-28 08:17:00
2860299 biokyb.com 1 12996899 2011-09-28 08:17:04
2860300 bionivo.com 4 2219445 2011-09-28 08:17:05
2860301 dmcfh25a.info 0 No Rank 2011-09-28 08:17:09
2860302 biodanse.org 1 No Rank 2011-09-28 08:17:10
2860303 billylanephotography.com 1 No Rank 2011-09-28 08:17:14
2860304 billsbirds.net 0 No Rank 2011-09-28 08:17:18
2860305 billmichul.com 1 No Rank 2011-09-28 08:17:24
2860306 dmcfh25kreview.info 0 No Rank 2011-09-28 08:17:25
2860307 billkohlheppgroup.com 1 No Rank 2011-09-28 08:17:27
2860308 capitolhillmail.com 0 No Rank 2011-09-28 08:17:29
2860309 jupiterjones.info 0 No Rank 2011-09-28 08:17:29
2860310 bimcogeneralmeeting2011.ca 3 No Rank 2011-09-28 08:17:33
2860311 bagfrenzy.com 0 11561409 2011-09-28 08:17:33
2860312 billknapps.com 0 No Rank 2011-09-28 08:17:36
2860313 billblizard.com 3 No Rank 2011-09-28 08:17:37
2860314 missionkdo.fr 1 5589007 2011-09-28 08:17:39
2860315 billandpat.net 0 No Rank 2011-09-28 08:17:40
2860316 bildegalleri.jbarlund.no 0 No Rank 2011-09-28 08:17:42
2860317 bagongpilipinas.org 2 No Rank 2011-09-28 08:17:45
2860318 bikers4bikers.be 1 No Rank 2011-09-28 08:17:46
2860319 nichemega.com 0 No Rank 2011-09-28 08:17:50
2860320 bonavod.com 0 10365417 2011-09-28 08:17:52
2860321 bikehouston.org 4 7684252 2011-09-28 08:17:53
2860322 bagsfly.net 0 No Rank 2011-09-28 08:17:55
2860323 bijoutery.com 0 No Rank 2011-09-28 08:17:57
2860324 vercounty.org 5 No Rank 2011-09-28 08:17:57
2860325 bullioninvestmentblog.com 0 13945208 2011-09-28 08:17:57
2860326 bigz-burgerjoint.com 3 6305175 2011-09-28 08:18:00
2860327 dmczs6review.info 0 No Rank 2011-09-28 08:18:01
2860328 bijouamani.com 2 No Rank 2011-09-28 08:18:03
2860329 td347.info 0 No Rank 2011-09-28 08:18:06
2860330 silvercloudlimousine.net 0 No Rank 2011-09-28 08:18:08
2860331 bigpicx.com 0 1976706 2011-09-28 08:18:08
2860332 bigcuzinent.com 0 22035698 2011-09-28 08:18:08
2860333 bagm8.com 2 No Rank 2011-09-28 08:18:12
2860334 big-healeys.classicsportscars.eu 0 2132998 2011-09-28 08:18:12
2860335 essaycash.com 2 No Rank 2011-09-28 08:18:15
2860336 bidulock.ca 0 No Rank 2011-09-28 08:18:16
2860337 bahlbuilders.com 0 No Rank 2011-09-28 08:18:19
2860338 bidayuh.com 3 9682767 2011-09-28 08:18:20
2860339 bicycleranch.com 3 3969592 2011-09-28 08:18:22
2860340 bicyclegeneration.com 3 8884088 2011-09-28 08:18:23
2860341 mp3melody.com 3 5889338 2011-09-28 08:18:25
2860342 bicronusa.com 3 11122488 2011-09-28 08:18:28
2860343 bgrott.com 2 14260710 2011-09-28 08:18:32
2860344 bezpoplzen.cz 1 No Rank 2011-09-28 08:18:33
2860345 beyondthedictionary.com 0 No Rank 2011-09-28 08:18:35
2860346 bahaimontreal.org 3 No Rank 2011-09-28 08:18:35
2860347 dslrdeals.info 0 No Rank 2011-09-28 08:18:37
2860348 beydag.gov.tr 3 28568479 2011-09-28 08:18:38
2860349 kitchenknives-accessories.thebestkitchenbuy.com 0 No Rank 2011-09-28 08:18:38
2860350 rq1250.info 0 No Rank 2011-09-28 08:18:38
2860351 rushranch.org 4 No Rank 2011-09-28 08:18:39
2860352 425sfcom.com 0 No Rank 2011-09-28 08:18:39
2860353 bewegungskonzept.de 1 24901127 2011-09-28 08:18:41
2860354 bevmosurvey.com 0 1776463 2011-09-28 08:18:42
2860355 beulahlandbaptist.org 0 No Rank 2011-09-28 08:18:43
2860356 bettertoknow.yk.ca 4 21306086 2011-09-28 08:18:47
2860357 betterlivingalpineair.com 2 2540983 2011-09-28 08:18:49
2860358 dt-cadcam.com 2 4377777 2011-09-28 08:18:52
2860359 bethunesigns.com 1 No Rank 2011-09-28 08:18:53
2860360 bethanyhouseromania.org 2 No Rank 2011-09-28 08:18:53
2860361 bahai-quebec.org 6 No Rank 2011-09-28 08:18:55
2860362 betechsupport.com 0 No Rank 2011-09-28 08:18:56
2860363 betatestipad.com 0 No Rank 2011-09-28 08:18:59
2860364 bestsafetraining.com 0 16205166 2011-09-28 08:19:03
2860365 bahnbilder.12see.de 0 231900 2011-09-28 08:19:05
2860366 bermudatuckers.com 1 13934401 2011-09-28 08:19:08
2860367 bestreviewforexrobots.com 0 No Rank 2011-09-28 08:19:09
2860368 bestmoacupuncture.com 2 No Rank 2011-09-28 08:19:11
2860369 sauny.kiev.ua 3 1342020 2011-09-28 08:19:13
2860370 bestmaid.com 3 9022531 2011-09-28 08:19:14
2860371 bahnbetriebswerk.org 3 3336787 2011-09-28 08:19:18
2860372 besthouseinlagunabeach.com 0 No Rank 2011-09-28 08:19:19
2860373 eosrebelxs18-55iskit.info 0 No Rank 2011-09-28 08:19:20
2860374 web3.vqc.pl 0 No Rank 2011-09-28 08:19:22
2860375 easyshareprinterdockseries3.info 0 No Rank 2011-09-28 08:19:23
2860376 bestfriendspetphotography.com 0 23909941 2011-09-28 08:19:24
2860377 bestdiaperbag.org 0 No Rank 2011-09-28 08:19:28
2860378 cmt-germes.ru 2 No Rank 2011-09-28 08:19:28
2860379 tntschedule.info 0 No Rank 2011-09-28 08:19:31
2860380 bahrain2moro.com 2 1934731 2011-09-28 08:19:34
2860381 bestcareforgta.com 0 No Rank 2011-09-28 08:19:34
2860382 g72-250us.info 0 No Rank 2011-09-28 08:19:34
2860383 aplikasi-game-android-gratis.blogspot.com 0 No Rank 2011-09-28 08:19:35
2860384 bestbusyboysroofing.com 1 No Rank 2011-09-28 08:19:37
2860385 bestcamerasite.com 0 No Rank 2011-09-28 08:19:38
2860386 alltombat.com 3 8398161 2011-09-28 08:19:40
2860387 bestbeanbagsforkids.com 1 12174433 2011-09-28 08:19:41
2860388 best-tirana-restaurant.com 0 No Rank 2011-09-28 08:19:41
2860389 geiledames22565.sexdating2.info 0 No Rank 2011-09-28 08:19:43
2860390 findmedia.com 0 No Rank 2011-09-28 08:19:49
2860391 best-design.ch 1 No Rank 2011-09-28 08:19:49
2860392 best-small-business-to-start.net 0 No Rank 2011-09-28 08:19:49
2860393 gncwheyprotein.info 0 No Rank 2011-09-28 08:19:51
2860394 bahraindirectory.net 0 7819964 2011-09-28 08:19:54
2860395 besenbeiz-knobel.ch 2 No Rank 2011-09-28 08:19:54
2860396 berriesandleaves.com 0 No Rank 2011-09-28 08:19:54
2860397 kb.digium.com 4 37759 2011-09-28 08:19:57
2860398 aureliobrigh119.insanejournal.com 0 5036 2011-09-28 08:20:00
2860399 berniesbicycles.com 3 3318727 2011-09-28 08:20:01
2860400 bernardsidman.com 1 7716634 2011-09-28 08:20:02
2860401 notasunota.it 3 No Rank 2011-09-28 08:20:09
2860402 berland.pl 1 No Rank 2011-09-28 08:20:09
2860403 buitensexen32306.sexdating2.info 0 No Rank 2011-09-28 08:20:09
2860404 baiedebeauport.qc.ca 3 No Rank 2011-09-28 08:20:09
2860405 berkscountyupscalehomes.com 0 No Rank 2011-09-28 08:20:11
2860406 g72-b50us.info 0 No Rank 2011-09-28 08:20:12
2860407 berker.nu 2 No Rank 2011-09-28 08:20:14
2860408 uang-mengalir-rerus.blogspot.com 0 No Rank 2011-09-28 08:20:17
2860409 ddl-beats.org 1 2532973 2011-09-28 08:20:17
2860410 berenikaczarnota.com 2 No Rank 2011-09-28 08:20:19
2860411 baicityinvestments.com 0 No Rank 2011-09-28 08:20:21
2860412 bentley4homes.com 0 No Rank 2011-09-28 08:20:22
2860413 benpamies.com 1 21305954 2011-09-28 08:20:26
2860414 featherheadband.info 0 No Rank 2011-09-28 08:20:26
2860415 benjaminkids.be 1 No Rank 2011-09-28 08:20:32
2860416 baileyapts.com 3 6667986 2011-09-28 08:20:33
2860417 benefitsconsulting.net 4 26371727 2011-09-28 08:20:36
2860418 beresti-tazlau.tk 1 No Rank 2011-09-28 08:20:37
2860419 consultime.de 3 No Rank 2011-09-28 08:20:38
2860420 benchmarkpaymentnetworks.com 1 23299938 2011-09-28 08:20:40
2860421 benchmark-products.com 3 No Rank 2011-09-28 08:20:41
2860422 baileyarch.com 2 11478597 2011-09-28 08:20:42
2860423 benchesoutdoor.com 0 No Rank 2011-09-28 08:20:43
2860424 bemorporce.pt 2 No Rank 2011-09-28 08:20:46
2860425 bemoedee.com 3 17319504 2011-09-28 08:20:49
2860426 fuyuan-pu.com 2 No Rank 2011-09-28 08:20:49
2860427 bemcohydraulics.net 1 11067546 2011-09-28 08:20:51
2860428 belvedereapartments.info 0 No Rank 2011-09-28 08:20:52
2860429 beltcolombia.com 2 No Rank 2011-09-28 08:20:54
2860430 bailbondsfordetroit.com 0 No Rank 2011-09-28 08:20:57
2860431 netus.kdev.it 4 3782927 2011-09-28 08:21:00
2860432 bellmusicco.com 1 3871863 2011-09-28 08:21:00
2860433 indiana-wired.org 0 No Rank 2011-09-28 08:21:01
2860434 bellasoir.com 0 No Rank 2011-09-28 08:21:02
2860435 bellamusicstudios.com 0 No Rank 2011-09-28 08:21:09
2860436 bellagiftsllc.com 0 No Rank 2011-09-28 08:21:10
2860437 belladonaboutique.com 0 6069572 2011-09-28 08:21:13
2860438 baileyconnorcatering.com 2 No Rank 2011-09-28 08:21:13
2860439 beirutit.com 0 No Rank 2011-09-28 08:21:16
2860440 belgradeclubsoccer.org 2 No Rank 2011-09-28 08:21:17
2860441 paper-fig.com 2 No Rank 2011-09-28 08:21:19
2860442 behappymama.ru 1 No Rank 2011-09-28 08:21:22
2860443 oreb.ca 5 234629 2011-09-28 08:21:26
2860444 begin-organic-gardening.com 3 2391928 2011-09-28 08:21:27
2860445 beenchanted.com 0 No Rank 2011-09-28 08:21:28
2860446 baileyeducationgroup.com 1 No Rank 2011-09-28 08:21:29
2860447 beeksdesign.com 2 No Rank 2011-09-28 08:21:34
2860448 wubbgames.com 2 No Rank 2011-09-28 08:21:37
2860449 beehivewaxingsalon.com 3 4047512 2011-09-28 08:21:40
2860450 bedandbreakfastmaastricht-ellen.nl 2 17373900 2011-09-28 08:21:44
2860451 privesex5759.sexdating2.info 0 No Rank 2011-09-28 08:21:44
2860452 airriflesforsaleinindia.info 1 No Rank 2011-09-28 08:21:45
2860453 sunmmerming.blogspot.com 0 No Rank 2011-09-28 08:21:50
2860454 vhfdental.com 2 No Rank 2011-09-28 08:21:51
2860455 beckvillewoodcrafts.com 2 24236089 2011-09-28 08:21:52
2860456 autismbruv.weebly.com 0 No Rank 2011-09-28 08:21:55
2860457 beautybeautyusa.com 1 7863581 2011-09-28 08:21:58
2860458 beelineshopper.com 0 No Rank 2011-09-28 08:22:01
2860459 beautifulbouquetsbybetty.com 0 No Rank 2011-09-28 08:22:01
2860460 tshuazhuang.quanzixun.net 0 670124 2011-09-28 08:22:01
2860461 loretafoto.lt 2 25284990 2011-09-28 08:22:02
2860462 beate-uhse.tv 4 594097 2011-09-28 08:22:07
2860463 autismcoloringbook.com 2 No Rank 2011-09-28 08:22:15
2860464 be-ssi.com 0 No Rank 2011-09-28 08:22:16
2860465 kfulsmedia.com 2 6692187 2011-09-28 08:22:19
2860466 casapaine.com 1 No Rank 2011-09-28 08:22:20
2860467 be-plus.com 2 7817596 2011-09-28 08:22:22
2860468 bdrc.ru 2 1775263 2011-09-28 08:22:23
2860469 bdlandscapingllc.com 0 No Rank 2011-09-28 08:22:27
2860470 bdlock.com 2 No Rank 2011-09-28 08:22:27
2860471 autismglasgow.co.uk 0 No Rank 2011-09-28 08:22:27
2860472 bcsstudentcontest.com 0 No Rank 2011-09-28 08:22:31
2860473 bdg-online.org 4 No Rank 2011-09-28 08:22:31
2860474 bcsafety.net 0 No Rank 2011-09-28 08:22:35
2860475 good-tube.net 1 934817 2011-09-28 08:22:35
2860476 autismmatters.net 2 8411979 2011-09-28 08:22:40
2860477 bcfully.ch 2 2930197 2011-09-28 08:22:43
2860478 bccdod.com 0 22757773 2011-09-28 08:22:46
2860479 bcbgwomensshoes.com 0 No Rank 2011-09-28 08:22:47
2860480 globulnet.com 1 10127651 2011-09-28 08:22:48
2860481 bcbaseballclub.com 0 No Rank 2011-09-28 08:22:50
2860482 autismmanitoba.com 5 23271803 2011-09-28 08:22:53
2860483 bbmkcontracting.com 2 No Rank 2011-09-28 08:22:55
2860484 ntelosphones.info 0 15864873 2011-09-28 08:22:56
2860485 bbtsbielsko.pl 2 No Rank 2011-09-28 08:22:57
2860486 iphoneros.net 2 78041 2011-09-28 08:22:59
2860487 autismnetwork.org 0 12272649 2011-09-28 08:22:59
2860488 bayviewsteeles.com 1 No Rank 2011-09-28 08:23:02
2860489 autistichealing.org 0 No Rank 2011-09-28 08:23:07
2860490 bayouforklift.com 1 No Rank 2011-09-28 08:23:08
2860491 baynvc.org 4 2782188 2011-09-28 08:23:08
2860492 auto-cargo.ro 0 No Rank 2011-09-28 08:23:10
2860493 acpm-cmpa.org 0 No Rank 2011-09-28 08:23:13
2860494 bayerische-eisenstrasse.de 5 25544801 2011-09-28 08:23:15
2860495 bayareaproperty.info 1 23240067 2011-09-28 08:23:18
2860496 baileyrealestate.org 2 No Rank 2011-09-28 08:23:19
2860497 lezvie.com.ua 2 No Rank 2011-09-28 08:23:21
2860498 batterflei.ru 3 8559240 2011-09-28 08:23:23
2860499 chews4energy.net 0 No Rank 2011-09-28 08:23:24
2860500 baileytrailers.com 0 No Rank 2011-09-28 08:23:29
2860501 batiknusantara.com.my 0 19805667 2011-09-28 08:23:32
2860502 srt4.info 0 No Rank 2011-09-28 08:23:34
2860503 bayersantefeminine.com 0 No Rank 2011-09-28 08:23:43
2860504 batfan.eu 1 No Rank 2011-09-28 08:23:44
2860505 baimaithai.com 2 11449236 2011-09-28 08:23:44
2860506 digi-ms.co.uk 0 No Rank 2011-09-28 08:23:45
2860507 batcavebeloit.com 0 17820633 2011-09-28 08:23:48
2860508 baionibiology.editme.com 0 22645 2011-09-28 08:23:54
2860509 bastide-einesi.com 3 998451 2011-09-28 08:23:54
2860510 davebills.com 0 No Rank 2011-09-28 08:23:57
2860511 bastianbest.com 3 17458343 2011-09-28 08:23:58
2860512 bairdsnest.webs.com 2 11729100 2011-09-28 08:24:01
2860513 basr.com 3 No Rank 2011-09-28 08:24:02
2860514 baisacv.com 1 No Rank 2011-09-28 08:24:06
2860515 ntuc.info 0 No Rank 2011-09-28 08:24:08
2860516 basketcompany.com 3 9707695 2011-09-28 08:24:10
2860517 bassfishingrod.org 1 1667739 2011-09-28 08:24:13
2860518 life.jn.sd.cn 0 51551 2011-09-28 08:24:20
2860519 basicsanitations.com 0 No Rank 2011-09-28 08:24:20
2860520 bairdtspalding.org 1 7102874 2011-09-28 08:24:21
2860521 welcomefinance.net 0 No Rank 2011-09-28 08:24:21
2860522 baseballbeisbol.com 0 No Rank 2011-09-28 08:24:22
2860523 basconline.org 4 18366802 2011-09-28 08:24:27
2860524 barnquiltsiowa.com 3 11955889 2011-09-28 08:24:31
2860525 rurelaxed.com 1 23174186 2011-09-28 08:24:35
2860526 bariatrictreatment.info 1 No Rank 2011-09-28 08:24:35
2860527 barbazuane.com 2 No Rank 2011-09-28 08:24:40
2860528 bar-hetheem.nl 2 No Rank 2011-09-28 08:24:42
2860529 rq1050.info 0 No Rank 2011-09-28 08:24:44
2860530 bantser.com 3 No Rank 2011-09-28 08:24:46
2860531 banquect.com 0 No Rank 2011-09-28 08:24:46
2860532 kodakesp5250s.com 1 No Rank 2011-09-28 08:24:46
2860533 auto-emotion.jp 0 No Rank 2011-09-28 08:24:51
2860534 bankstonfordarlington.net 0 16181702 2011-09-28 08:24:52
2860535 bangael.com 3 16361361 2011-09-28 08:24:54
2860536 bandofhand.se 1 10293124 2011-09-28 08:25:01
2860537 auto-gaasiseade.ee 1 14005430 2011-09-28 08:25:02
2860538 bamix.ca 2 No Rank 2011-09-28 08:25:06
2860539 bamasign.com 1 No Rank 2011-09-28 08:25:11
2860540 qq.fzl100.com 0 3655373 2011-09-28 08:25:13
2860541 pleasurerocker.com 0 15656035 2011-09-28 08:25:15
2860542 baltycka.pl 2 No Rank 2011-09-28 08:25:16
2860543 balzvogt.ch 2 12748098 2011-09-28 08:25:17
2860544 scanthis.us 0 16862098 2011-09-28 08:25:17
2860545 baltimorecp.org 4 6735093 2011-09-28 08:25:21
2860546 auto-note.com 0 No Rank 2011-09-28 08:25:23
2860547 rnd4000.info 0 28148157 2011-09-28 08:25:24
2860548 ballyer.net 3 No Rank 2011-09-28 08:25:27
2860549 allaudios.com 2 28550577 2011-09-28 08:25:28
2860550 balloonmastersinc.biz 2 No Rank 2011-09-28 08:25:31
2860551 ballonidee.be 1 No Rank 2011-09-28 08:25:36
2860552 ballfour.com 5 6454915 2011-09-28 08:25:40
2860553 branbro.com 0 13141482 2011-09-28 08:25:41
2860554 balkan-porno.com 0 14998888 2011-09-28 08:25:43
2860555 auto-rent.biz 1 13459851 2011-09-28 08:25:50
2860556 balton.co.ug 0 No Rank 2011-09-28 08:25:51
2860557 thenaturalremediesforgout.com 0 No Rank 2011-09-28 08:25:53
2860558 baladiecafesf.com 1 No Rank 2011-09-28 08:25:54
2860559 baldenglishman.co.nz 1 No Rank 2011-09-28 08:25:54
2860560 turkeyfryer.info 0 No Rank 2011-09-28 08:25:57
2860561 bakerproducts.com 2 No Rank 2011-09-28 08:25:59
2860562 bakenbrewcafe.com 1 No Rank 2011-09-28 08:26:02
2860563 baguslah.net 1 27139051 2011-09-28 08:26:08
2860564 baikal-inform.ru 2 No Rank 2011-09-28 08:26:10
2860565 auto-torg.net 1 No Rank 2011-09-28 08:26:11
2860566 baeratung.com 0 No Rank 2011-09-28 08:26:13
2860567 bacterialvaginosisgoneforever.com 0 No Rank 2011-09-28 08:26:14
2860568 entryworx.com 0 No Rank 2011-09-28 08:26:15
2860569 auto.or.ug 5 1133977 2011-09-28 08:26:22
2860570 bachleda.zakopiec.com.pl 3 2120757 2011-09-28 08:26:23
2860571 cmpa-acpm.org 0 No Rank 2011-09-28 08:26:25
2860572 baby-beckmann.de 1 2290432 2011-09-28 08:26:28
2860573 babcockcenter.com 0 No Rank 2011-09-28 08:26:28
2860574 autoaidcolchester.co.uk 0 No Rank 2011-09-28 08:26:31
2860575 tg8030mb2.info 0 No Rank 2011-09-28 08:26:31
2860576 baacoffice.com 2 No Rank 2011-09-28 08:26:33
2860577 b2bbulgaria.com 2 No Rank 2011-09-28 08:26:33
2860578 autoarmored.com 0 No Rank 2011-09-28 08:26:37
2860579 b-eaufort.be 3 No Rank 2011-09-28 08:26:40
2860580 azooletrade.org 0 No Rank 2011-09-28 08:26:41
2860581 azhikinggallery.com 2 No Rank 2011-09-28 08:26:45
2860582 azec.org 1 22248260 2011-09-28 08:26:46
2860583 azboxhd.de 2 13962494 2011-09-28 08:26:51
2860584 azbellasera.org 0 14134828 2011-09-28 08:26:51
2860585 ds.rambler.ru 6 178 2011-09-28 08:26:53
2860586 www2.cqast.cn 6 8782533 2011-09-28 08:26:54
2860587 azadco.net 0 No Rank 2011-09-28 08:26:56
2860588 azarakhsh.biz 0 17240580 2011-09-28 08:26:56
2860589 autoblogfeed.com 0 17193585 2011-09-28 08:26:57
2860590 aybal.com.tr 0 12868780 2011-09-28 08:27:01
2860591 uhcl.info 0 No Rank 2011-09-28 08:27:05
2860592 ayansa.org 0 3909493 2011-09-28 08:27:05
2860593 axxomovies.myforum.ro 1 102222 2011-09-28 08:27:08
2860594 axismfg.com 1 20017097 2011-09-28 08:27:13
2860595 autobusesolimpica.com 2 6537578 2011-09-28 08:27:15
2860596 axionpress.com 3 No Rank 2011-09-28 08:27:15
2860597 axiomstaffing.com 3 4485423 2011-09-28 08:27:16
2860598 icannwiki.com 0 77162 2011-09-28 08:27:17
2860599 kaylacruz.net 0 5404001 2011-09-28 08:27:21
2860600 axeleringatlan.hu 1 No Rank 2011-09-28 08:27:21
2860601 ax2.jp 2 No Rank 2011-09-28 08:27:22
2860602 autobusesdelujua.com 0 No Rank 2011-09-28 08:27:24
2860603 autobv.com 2 2386913 2011-09-28 08:27:26
2860604 awxonline.com 0 No Rank 2011-09-28 08:27:28
2860605 hi.fzl100.com 0 3655373 2011-09-28 08:27:36
2860606 awakeningtruthworldwide.com 2 4516848 2011-09-28 08:27:39
2860607 awans.edux.pl 4 293326 2011-09-28 08:27:40
2860608 howtoselect.net 0 20365585 2011-09-28 08:27:41
2860609 avop-palyazat.hu 4 27347606 2011-09-28 08:27:44
2860610 baitcasters.byethost6.com 0 127090 2011-09-28 08:27:46
2860611 supermayki7739rg.chat.ru 0 24231 2011-09-28 08:27:48
2860612 avon.do.am 0 182 2011-09-28 08:27:48
2860613 karmakagyu.ru 3 5196374 2011-09-28 08:27:51
2860614 avlispub.com 3 16037860 2011-09-28 08:27:54
2860615 avocat-cerf.com 0 24668013 2011-09-28 08:27:55
2860616 baito168.com 1 6992615 2011-09-28 08:27:56
2860617 colorpilot.ru 3 490916 2011-09-28 08:28:00
2860618 autocaravana.blogdiario.com 2 16185 2011-09-28 08:28:08
2860619 avidmobile.com 1 113489 2011-09-28 08:28:11
2860620 bajasafari.blog.com 1 1087 2011-09-28 08:28:11
2860621 averywelding.com 0 No Rank 2011-09-28 08:28:16
2860622 rl29thcts.info 0 No Rank 2011-09-28 08:28:16
2860623 linkagogo.net 6 622527 2011-09-28 08:28:20
2860624 avconnect.cz 0 No Rank 2011-09-28 08:28:21
2860625 avantitravel.gr 2 17743725 2011-09-28 08:28:26
2860626 bajasafarinow.blogspot.com 2 No Rank 2011-09-28 08:28:29
2860627 avandiasettlement.info 0 No Rank 2011-09-28 08:28:30
2860628 a2zbd.net 0 1565786 2011-09-28 08:28:31
2860629 possltd.co.uk 2 No Rank 2011-09-28 08:28:33
2860630 autsema.nl 1 No Rank 2011-09-28 08:28:38
2860631 darktemplars-eq.com 0 7876964 2011-09-28 08:28:40
2860632 bajetcomputer.com 1 12690996 2011-09-28 08:28:40
2860633 autowaytoyota.net 0 7623658 2011-09-28 08:28:41
2860634 autotrimdesignalaska.com 1 18308040 2011-09-28 08:28:44
2860635 patiofurniture477.tumblr.com 0 No Rank 2011-09-28 08:28:47
2860636 automatic-bloodpressuremonitor.com 0 No Rank 2011-09-28 08:28:47
2860637 autolift.com 3 10397172 2011-09-28 08:28:51
2860638 evansvillecourier.info 0 18481331 2011-09-28 08:28:52
2860639 autohaus-rheims.com 0 No Rank 2011-09-28 08:28:55
2860640 rotorburn.com 3 167359 2011-09-28 08:28:57
2860641 auto-vitalis.de 2 No Rank 2011-09-28 08:29:01
2860642 sunmmersen.wordpress.com 0 No Rank 2011-09-28 08:29:02
2860643 yogaorakel.de 2 No Rank 2011-09-28 08:29:08
2860644 auto-multari.ch 1 No Rank 2011-09-28 08:29:09
2860645 bakeat350.blogspot.com 5 108784 2011-09-28 08:29:13
2860646 authorscast.com 3 21336512 2011-09-28 08:29:16
2860647 yourfanbox.com 5 1643260 2011-09-28 08:29:16
2860648 buyengravedbeermugs.com 0 No Rank 2011-09-28 08:29:19
2860649 authorsbooknook.com 2 15224365 2011-09-28 08:29:20
2860650 bakedfriedgrilled.com 1 13507898 2011-09-28 08:29:23
2860651 rushhour3.info 0 No Rank 2011-09-28 08:29:27
2860652 ausmnews.com 0 No Rank 2011-09-28 08:29:27
2860653 bakeocracy.com 0 No Rank 2011-09-28 08:29:30
2860654 augenpraxis-city-hamburg.com 1 25242877 2011-09-28 08:29:31
2860655 demossnews.com 4 2986302 2011-09-28 08:29:34
2860656 sacramentolimousines.ucslimo.com 0 752515 2011-09-28 08:29:39
2860657 audiotranscription.org 4 823502 2011-09-28 08:29:41
2860658 audiohouston.com 2 5516774 2011-09-28 08:29:45
2860659 bakerbuilttracks.com 1 No Rank 2011-09-28 08:29:48
2860660 devsguides.com 0 8429839 2011-09-28 08:29:54
2860661 attractlove.tv 0 No Rank 2011-09-28 08:29:56
2860662 rob.salzman.us 0 No Rank 2011-09-28 08:29:56
2860663 atticbooksandtreasures.com 2 19987815 2011-09-28 08:30:00
2860664 bakersfield.dabush.org 0 No Rank 2011-09-28 08:30:02
2860665 atozcorp.com 0 No Rank 2011-09-28 08:30:04
2860666 cgbconnector.info 1 10599981 2011-09-28 08:30:06
2860667 atomicmadhouse.com 3 No Rank 2011-09-28 08:30:08
2860668 meinistore.com 0 No Rank 2011-09-28 08:30:12
2860669 atomb.dk 1 No Rank 2011-09-28 08:30:15
2860670 bakerwilliamslaw.com 2 7838240 2011-09-28 08:30:17
2860671 uglyaccent.com 2 No Rank 2011-09-28 08:30:30
2860672 report-card.net 0 13923186 2011-09-28 08:30:31
2860673 atletismomacotera.tk 1 No Rank 2011-09-28 08:30:38
2860674 rv-nb52b.info 0 9729035 2011-09-28 08:30:43
2860675 atlanticeventrentals.com 3 No Rank 2011-09-28 08:30:43
2860676 f-photobook.jp 5 481271 2011-09-28 08:30:43
2860677 cyanidepk.com 0 5623606 2011-09-28 08:30:45
2860678 autocaravaning.org 1 13508138 2011-09-28 08:30:48
2860679 atlantameatcompany.com 2 No Rank 2011-09-28 08:30:50
2860680 pornlounge.org 1 259748 2011-09-28 08:30:55
2860681 athomewithyara.com 0 8226115 2011-09-28 08:30:59
2860682 autocena.net 2 No Rank 2011-09-28 08:31:00
2860683 winstonfisch49.livejournal.com 0 86 2011-09-28 08:31:01
2860684 athleticsethiopia.org.et 2 12636953 2011-09-28 08:31:02
2860685 blog.nnnlp.com 4 1557143 2011-09-28 08:31:05
2860686 athenaappraisals.com 1 26187565 2011-09-28 08:31:08
2860687 ateliersduplateau.com 0 No Rank 2011-09-28 08:31:14
2860688 autocarrepairshop-dallastx.info 1 No Rank 2011-09-28 08:31:15
2860689 atelier43.nl 2 No Rank 2011-09-28 08:31:18
2860690 rnd2110.info 0 No Rank 2011-09-28 08:31:19
2860691 autoclaimsrecovery.com 0 No Rank 2011-09-28 08:31:22
2860692 at-ensen.net 0 No Rank 2011-09-28 08:31:26
2860693 asuwrestling.com 5 No Rank 2011-09-28 08:31:41
2860694 astrologer.net 0 1036035 2011-09-28 08:31:44
2860695 astroholdings.co.za 0 No Rank 2011-09-28 08:31:47
2860696 aviationcollegeembryriddle.com 6 19218475 2011-09-28 08:31:48
2860697 astrodude.com 2 11416914 2011-09-28 08:31:51
2860698 astrocoach.se 3 No Rank 2011-09-28 08:31:54
2860699 gzfeipinhuishou.com 0 No Rank 2011-09-28 08:31:55
2860700 astro.chtis.free.fr 2 208 2011-09-28 08:31:55
2860701 purpledress.info 0 20854977 2011-09-28 08:31:56
2860702 astro-plepla.de 0 No Rank 2011-09-28 08:31:58
2860703 asteco.com.pl 2 No Rank 2011-09-28 08:32:08
2860704 associatedworkroom.com 0 15870759 2011-09-28 08:32:09
2860705 assassinationofamerica.com 2 No Rank 2011-09-28 08:32:13
2860706 laptop.teraget.com 0 22173062 2011-09-28 08:32:15
2860707 asiatische-weisheiten.de.vu 0 No Rank 2011-09-28 08:32:19
2860708 shop.feizl.net 0 5967516 2011-09-28 08:32:20
2860709 asiaspice.com 0 No Rank 2011-09-28 08:32:21
2860710 asiaquest.com.my 1 13858558 2011-09-28 08:32:25
2860711 oyoebookreader.info 0 No Rank 2011-09-28 08:32:26
2860712 asianartstudio.com 2 No Rank 2011-09-28 08:32:30
2860713 ashokagroup.info 0 No Rank 2011-09-28 08:32:35
2860714 autocolor.ee 0 21610033 2011-09-28 08:32:36
2860715 ashlux.com 1 7424304 2011-09-28 08:32:39
2860716 ashkdesing.com 0 No Rank 2011-09-28 08:32:39
2860717 ashgeriatrics.com 2 16760108 2011-09-28 08:32:42
2860718 asecondopinionmag.com 2 4933599 2011-09-28 08:32:45
2860719 asecondme.com 1 No Rank 2011-09-28 08:32:49
2860720 ascc-nautica.com 2 9228162 2011-09-28 08:32:53
2860721 autodesigntints.co.uk 2 No Rank 2011-09-28 08:32:54
2860722 asagvtt.com 2 No Rank 2011-09-28 08:32:55
2860723 aruvil.com 1 No Rank 2011-09-28 08:32:56
2860724 cfcflorida.org 4 8079781 2011-09-28 08:32:59
2860725 artworksadvertising.com 0 No Rank 2011-09-28 08:33:00
2860726 autodollar.net 0 No Rank 2011-09-28 08:33:01
2860727 artwarefestival.com 5 26719228 2011-09-28 08:33:06
2860728 artsyfartsymiranda.com 1 No Rank 2011-09-28 08:33:07
2860729 artsandent.com 1 18217451 2011-09-28 08:33:10
2860730 artobject.org 0 No Rank 2011-09-28 08:33:14
2860731 artphotodigital.com 2 No Rank 2011-09-28 08:33:14
2860732 ssdintel.info 0 No Rank 2011-09-28 08:33:15
2860733 autodocument.tk 0 No Rank 2011-09-28 08:33:17
2860734 artistinitiatives.org 4 No Rank 2011-09-28 08:33:19
2860735 artisthomestead.com 2 No Rank 2011-09-28 08:33:23
2860736 artisandecksandpagodas.com 0 No Rank 2011-09-28 08:33:24
2860737 artisanartifacts.com 1 No Rank 2011-09-28 08:33:27
2860738 articulatedtruckparts.com 1 No Rank 2011-09-28 08:33:28
2860739 arthuracc.com 2 No Rank 2011-09-28 08:33:32
2860740 articatz.com 3 22385346 2011-09-28 08:33:33
2860741 cosmokalam.com 5 16913058 2011-09-28 08:33:36
2860742 arthouseca.org 4 7306623 2011-09-28 08:33:38
2860743 autoescolaforum.com 0 9567792 2011-09-28 08:33:38
2860744 artgraver.ru 0 7918449 2011-09-28 08:33:42
2860745 dsx.sxdaba.com 3 4179454 2011-09-28 08:33:43
2860746 artfortunisia.com 2 17654979 2011-09-28 08:33:43
2860747 exploredwu.com 0 No Rank 2011-09-28 08:33:47
2860748 artecho.com 4 No Rank 2011-09-28 08:33:47
2860749 rpwl.info 0 No Rank 2011-09-28 08:33:48
2860750 artallianceofmonmouth.org 3 No Rank 2011-09-28 08:33:48
2860751 autoecoledewavre.be 1 21458443 2011-09-28 08:33:49
2860752 art-fame.com 2 6301749 2011-09-28 08:33:56
2860753 alltomgolf.com 1 5261850 2011-09-28 08:33:59
2860754 arso.org 6 2426490 2011-09-28 08:34:00
2860755 aroundshellknob.com 2 No Rank 2011-09-28 08:34:00
2860756 autoescuela-arilla.com 0 No Rank 2011-09-28 08:34:03
2860757 arnoldsappliance.com 1 3445637 2011-09-28 08:34:08
2860758 aromakaze.com 0 No Rank 2011-09-28 08:34:08
2860759 arnoldconsultinggroup.com 0 No Rank 2011-09-28 08:34:11
2860760 autofoglight.com 0 No Rank 2011-09-28 08:34:12
2860761 arlequin-photographe-mariage.com 1 9717569 2011-09-28 08:34:14
2860762 arkansascommercial.com 1 No Rank 2011-09-28 08:34:17
2860763 arizonawildcats.com 6 207753 2011-09-28 08:34:20
2860764 autofashionstore.com 1 9019110 2011-09-28 08:34:21
2860765 arizonalandscapegroup.com 1 No Rank 2011-09-28 08:34:21
2860766 arianaphotography.com 2 No Rank 2011-09-28 08:34:25
2860767 playforlife.dk 1 4866750 2011-09-28 08:34:26
2860768 sgpickguard.info 0 No Rank 2011-09-28 08:34:26
2860769 argusmso.com 2 11168415 2011-09-28 08:34:30
2860770 arenanetwork.net 6 5078740 2011-09-28 08:34:30
2860771 szemy.com.cn 0 No Rank 2011-09-28 08:34:35
2860772 area51offroad.com 1 No Rank 2011-09-28 08:34:36
2860773 autoescuelascima.com 0 15333253 2011-09-28 08:34:37
2860774 rubinrios821.imagekind.com 0 17060 2011-09-28 08:34:38
2860775 area-career.com 0 3208606 2011-09-28 08:34:39
2860776 ardolgin.com 1 20338991 2011-09-28 08:34:39
2860777 itsyourtime.ie 5 No Rank 2011-09-28 08:34:43
2860778 ardmorepublishing.com 3 7432747 2011-09-28 08:34:43
2860779 en.csgf.org.cn 5 4486605 2011-09-28 08:34:48
2860780 ardemolition.com 2 No Rank 2011-09-28 08:34:49
2860781 autofoglights.autofoglight.com 0 No Rank 2011-09-28 08:34:50
2860782 archwaypictures.com 2 No Rank 2011-09-28 08:34:51
2860783 jacken.xu2.org 0 13426508 2011-09-28 08:34:51
2860784 cyclegeeks.org 2 3082323 2011-09-28 08:34:56
2860785 archivium.lv 1 19362845 2011-09-28 08:34:57
2860786 archineticsinc.com 1 No Rank 2011-09-28 08:34:57
2860787 slicksimpleflixcamera.info 0 No Rank 2011-09-28 08:34:59
2860788 archicadusersassociation.com 3 No Rank 2011-09-28 08:35:01
2860789 autogelseat.com 0 No Rank 2011-09-28 08:35:01
2860790 archery-supplies.org 1 27393886 2011-09-28 08:35:03
2860791 archdiocese-edinburgh.com 5 5166300 2011-09-28 08:35:06
2860792 archconserve.com 2 No Rank 2011-09-28 08:35:08
2860793 arcadiahospice.com 1 22247258 2011-09-28 08:35:11
2860794 arbredevieproducts.com 1 20874823 2011-09-28 08:35:12
2860795 bakerycleveland.com 1 18007641 2011-09-28 08:35:13
2860796 duneresort.com 4 No Rank 2011-09-28 08:35:19
2860797 arakaki34.com 2 No Rank 2011-09-28 08:35:20
2860798 araby-batklubb.se 2 No Rank 2011-09-28 08:35:21
2860799 aquachem-inc.com 2 13411381 2011-09-28 08:35:24
2860800 bakeryeverafter.blogspot.com 0 No Rank 2011-09-28 08:35:24
2860801 jmmovie.net 1 8208811 2011-09-28 08:35:25
2860802 aptradersindia.com 1 11719853 2011-09-28 08:35:29
2860803 gardenclubangels.org 2 No Rank 2011-09-28 08:35:33
2860804 aboutitall.com 4 No Rank 2011-09-28 08:35:34
2860805 apriliatalk.com 2 911104 2011-09-28 08:35:34
2860806 lostcabos.com 1 No Rank 2011-09-28 08:35:35
2860807 applewaymazdasubaru.net 1 13342621 2011-09-28 08:35:36
2860808 bakingwithbasil.com 2 1366620 2011-09-28 08:35:41
2860809 appelpourlaposte.fr 4 6099685 2011-09-28 08:35:45
2860810 apmnaltron.com 2 No Rank 2011-09-28 08:35:46
2860811 apluselectricalsvc.com 0 No Rank 2011-09-28 08:35:50
2860812 wikisquare.com 3 1583047 2011-09-28 08:35:51
2860813 apfossracing.dk 1 No Rank 2011-09-28 08:35:52
2860814 playapal.co.uk 2 No Rank 2011-09-28 08:35:54
2860815 apartmentscroatia.com 3 7649911 2011-09-28 08:35:55
2860816 apatyt.pl 2 No Rank 2011-09-28 08:35:57
2860817 bakugantoystore.org 0 No Rank 2011-09-28 08:35:58
2860818 apartmentsatiowa.com 1 No Rank 2011-09-28 08:36:00
2860819 apartmani-puntaskala.com 0 No Rank 2011-09-28 08:36:06
2860820 apartments-ana.com 1 12640361 2011-09-28 08:36:06
2860821 aliveonline.ca 5 183474 2011-09-28 08:36:07
2860822 bakungsari.com 3 5482337 2011-09-28 08:36:09
2860823 apartmani-mirjana.vodice.com.hr 0 14441857 2011-09-28 08:36:13
2860824 aotake.net 1 No Rank 2011-09-28 08:36:15
2860825 aonesaree.com 0 No Rank 2011-09-28 08:36:17
2860826 aockantiinbodrum.com 0 28039099 2011-09-28 08:36:22
2860827 anxietypanictreatment.org 0 13349398 2011-09-28 08:36:24
2860828 balades-en-aquitaine.com 4 No Rank 2011-09-28 08:36:26
2860829 anumihair.com 0 No Rank 2011-09-28 08:36:27
2860830 antonellaresmini.com 1 No Rank 2011-09-28 08:36:33
2860831 antitanti.se 0 No Rank 2011-09-28 08:36:34
2860832 baladrecadiz.es 0 No Rank 2011-09-28 08:36:40
2860833 antique-eyeglasses.com 0 4239835 2011-09-28 08:36:42
2860834 antilia.pl 1 No Rank 2011-09-28 08:36:42
2860835 anticacoronareale.com 3 15473620 2011-09-28 08:36:46
2860836 antidesurfboards.com 0 No Rank 2011-09-28 08:36:49
2860837 daduxtobir.blogspot.com 0 No Rank 2011-09-28 08:36:50
2860838 anthonyshowrooms.com 1 4321705 2011-09-28 08:36:51
2860839 anthonymccann.com 4 No Rank 2011-09-28 08:36:53
2860840 anthonygeernaert.com 3 No Rank 2011-09-28 08:36:57
2860841 dg.winupon.com 0 476438 2011-09-28 08:36:58
2860842 ensarideri.com 1 28237658 2011-09-28 08:36:58
2860843 anorexiapunkten.se 3 No Rank 2011-09-28 08:37:00
2860844 annmariephoto.net 0 No Rank 2011-09-28 08:37:00
2860845 thailandhotels.tk 0 15365610 2011-09-28 08:37:00
2860846 balajiabhi.blogspot.com 0 11098155 2011-09-28 08:37:03
2860847 annephoto.com 2 15406214 2011-09-28 08:37:06
2860848 annikaevans.com 1 23044027 2011-09-28 08:37:08
2860849 annehenrycakes.com 3 No Rank 2011-09-28 08:37:10
2860850 summertail.com 3 9738326 2011-09-28 08:37:13
2860851 annarossinellimusic.com 5 6022469 2011-09-28 08:37:17
2860852 anna-lynn.net 1 9511126 2011-09-28 08:37:17
2860853 offbroadwayshoes.info 0 No Rank 2011-09-28 08:37:20
2860854 autogereedschap.com 1 2627115 2011-09-28 08:37:23
2860855 anloo.se 1 No Rank 2011-09-28 08:37:23
2860856 anna-essinger-gymnasium.de 3 3852305 2011-09-28 08:37:25
2860857 nailtoepia.com 0 No Rank 2011-09-28 08:37:27
2860858 animationshed.org 2 No Rank 2011-09-28 08:37:29
2860859 animalinstinctadvertising.com 3 No Rank 2011-09-28 08:37:31
2860860 summeryuan.blog.com 0 1085 2011-09-28 08:37:32
2860861 autographicdecals.com 1 11212824 2011-09-28 08:37:33
2860862 animalia.ch.vu 0 No Rank 2011-09-28 08:37:34
2860863 anicrackers.com 2 No Rank 2011-09-28 08:37:37
2860864 rt-46.buzin.de 0 No Rank 2011-09-28 08:37:37
2860865 autogpsz.us 0 22914548 2011-09-28 08:37:39
2860866 angelocscorp.com 3 No Rank 2011-09-28 08:37:42
2860867 angkorschildren.com 1 No Rank 2011-09-28 08:37:44
2860868 satyasingh.com 2 16166406 2011-09-28 08:37:45
2860869 autohaus-schiller.de 0 No Rank 2011-09-28 08:37:49
2860870 angelis.ru 0 No Rank 2011-09-28 08:37:50
2860871 angelo-foods.net 2 No Rank 2011-09-28 08:37:52
2860872 liceshield.net 1 4980687 2011-09-28 08:37:55
2860873 angelique-india.com 3 3639984 2011-09-28 08:37:57
2860874 hsdparouter.info 0 25082932 2011-09-28 08:37:57
2860875 angelfashionlb.com 0 No Rank 2011-09-28 08:37:58
2860876 winstonfisch49.insanejournal.com 0 5036 2011-09-28 08:37:59
2860877 phukethotels.tk 0 No Rank 2011-09-28 08:38:02
2860878 angelescitysite.com 2 3407698 2011-09-28 08:38:02
2860879 modestozen.org 2 No Rank 2011-09-28 08:38:07
2860880 angelawallace.ca 0 No Rank 2011-09-28 08:38:08
2860881 angela-weddings.com 2 10226133 2011-09-28 08:38:10
2860882 aneyeon.com 0 No Rank 2011-09-28 08:38:12
2860883 andymasteroffish.com 1 5067009 2011-09-28 08:38:21
2860884 andyrehfeldt.com 2 3668024 2011-09-28 08:38:22
2860885 autohifi.net 2 3689199 2011-09-28 08:38:24
2860886 andrewvenell.com 3 7301774 2011-09-28 08:38:26
2860887 pvcpipecutter.info 0 18101653 2011-09-28 08:38:30
2860888 andrea.frosthouse.dk 0 No Rank 2011-09-28 08:38:32
2860889 emineminfo.com 2 3710915 2011-09-28 08:38:32
2860890 andreahirata.net 2 5458661 2011-09-28 08:38:33
2860891 andoverinteriordesigns.com 1 No Rank 2011-09-28 08:38:36
2860892 autoincentivesrebates.com 0 No Rank 2011-09-28 08:38:37
2860893 andiquoteinvites.com 1 20108067 2011-09-28 08:38:38
2860894 andersonclaims.com 2 No Rank 2011-09-28 08:38:40
2860895 ancientwaysdsm.com 1 No Rank 2011-09-28 08:38:41
2860896 anchoragecosmeticsurgery.com 0 No Rank 2011-09-28 08:38:45
2860897 allisonart.com 3 6823666 2011-09-28 08:38:46
2860898 autohausva.net 1 No Rank 2011-09-28 08:38:48
2860899 analfestival.net 0 No Rank 2011-09-28 08:38:50
2860900 anahatafoods.ca 0 No Rank 2011-09-28 08:38:53
2860901 ftp.ecsusa.com 5 285011 2011-09-28 08:38:54
2860902 amvets-in.org 4 10252775 2011-09-28 08:38:57
2860903 autokutse.org 3 No Rank 2011-09-28 08:38:58
2860904 amstelanddon.nl 1 No Rank 2011-09-28 08:39:00
2860905 amr23.ru 2 No Rank 2011-09-28 08:39:05
2860906 onkyopricesingapore.info 0 No Rank 2011-09-28 08:39:06
2860907 amour-toujours-photos.be 0 No Rank 2011-09-28 08:39:07
2860908 balajiramesh.wordpress.com 0 801376 2011-09-28 08:39:08
2860909 amishpeople.net 1 No Rank 2011-09-28 08:39:08
2860910 langleybaseball.ca 2 No Rank 2011-09-28 08:39:18
2860911 americaspridecotons.com 1 10950823 2011-09-28 08:39:18
2860912 americasbestvalueinnmentoroh.com 0 23722420 2011-09-28 08:39:21
2860913 americanstorageandlogistics.com 2 19775005 2011-09-28 08:39:22
2860914 americanprideleather.com 1 10129203 2011-09-28 08:39:26
2860915 american-home-inspections.com 1 No Rank 2011-09-28 08:39:32
2860916 amberbookcompany.com 2 No Rank 2011-09-28 08:39:35
2860917 amazonwarriortheory.com 0 No Rank 2011-09-28 08:39:36
2860918 ns1.ebenta.com 1 93321 2011-09-28 08:39:38
2860919 amazinginternships.com 0 No Rank 2011-09-28 08:39:41
2860920 amandawells.com 2 14105324 2011-09-28 08:39:43
2860921 balancingwellness.com 2 No Rank 2011-09-28 08:39:50
2860922 tpxcatchersgear.info 0 No Rank 2011-09-28 08:39:51
2860923 balans.seriesgames.net 0 1486103 2011-09-28 08:39:59
2860924 firstbasin.org 3 No Rank 2011-09-28 08:40:07
2860925 balanganhosting.com 0 No Rank 2011-09-28 08:40:09
2860926 amandassage.com 1 No Rank 2011-09-28 08:40:13
2860927 amanalawyers.com 1 No Rank 2011-09-28 08:40:14
2860928 ds4.rambler.ru 0 178 2011-09-28 08:40:18
2860929 alyasat-school.org 0 No Rank 2011-09-28 08:40:18
2860930 alwassat29.com 1 776719 2011-09-28 08:40:23
2860931 alveo-italy.com 0 No Rank 2011-09-28 08:40:23
2860932 aluschka.com 0 No Rank 2011-09-28 08:40:26
2860933 egoshooterpc.info 0 No Rank 2011-09-28 08:40:26
2860934 vdiblaster.com 3 8105882 2011-09-28 08:40:27
2860935 alucra.meb.gov.tr 2 2928 2011-09-28 08:40:29
2860936 cheesecakefactoryrecipes4u.com 0 No Rank 2011-09-28 08:40:29
2860937 altosleep.com 1 No Rank 2011-09-28 08:40:31
2860938 altonsr70.com 0 No Rank 2011-09-28 08:40:33
2860939 balashovavenue.ru 1 No Rank 2011-09-28 08:40:34
2860940 blowharder.com 0 No Rank 2011-09-28 08:40:38
2860941 altitudeaerials.com 0 No Rank 2011-09-28 08:40:38
2860942 alternativa-vtu.com 0 No Rank 2011-09-28 08:40:40
2860943 autolinkbd.com 1 14163981 2011-09-28 08:40:41
2860944 altaphotographics.com 0 No Rank 2011-09-28 08:40:41
2860945 postyworld.com 0 No Rank 2011-09-28 08:40:46
2860946 alt4kreativ.dk 4 No Rank 2011-09-28 08:40:47
2860947 altamgmt.com 0 No Rank 2011-09-28 08:40:48
2860948 autoleadstorm.com 2 12180317 2011-09-28 08:40:50
2860949 pokerstatz.com 0 No Rank 2011-09-28 08:40:54
2860950 alpinecatering.info 3 13276859 2011-09-28 08:40:54
2860951 alphawolftutoring.com 0 No Rank 2011-09-28 08:40:58
2860952 alpharesourcesllc.com 0 No Rank 2011-09-28 08:41:02
2860953 autologisticstransport.com 0 No Rank 2011-09-28 08:41:03
2860954 instanttipson.com 0 23250423 2011-09-28 08:41:03
2860955 alphaphiuva.com 2 No Rank 2011-09-28 08:41:06
2860956 alphaopticsinc.com 3 15090839 2011-09-28 08:41:09
2860957 ds1.rambler.ru 0 178 2011-09-28 08:41:16
2860958 almuhands.biz 1 20216277 2011-09-28 08:41:19
2860959 autoloansforstudents.blog.com 1 1087 2011-09-28 08:41:25
2860960 almetals.lv 3 No Rank 2011-09-28 08:41:26
2860961 almavacation.com 2 10828072 2011-09-28 08:41:29
2860962 sat-italia.com 3 No Rank 2011-09-28 08:41:30
2860963 almarlog.com 2 No Rank 2011-09-28 08:41:33
2860964 autolit.narod.ru 0 243 2011-09-28 08:41:35
2860965 ryanmallett.info 0 No Rank 2011-09-28 08:41:37
2860966 howdyjones.com 0 No Rank 2011-09-28 08:41:38
2860967 allvec.com 0 No Rank 2011-09-28 08:41:40
2860968 automaalaamotnieminen.com 0 10168292 2011-09-28 08:41:44
2860969 usacasinoz.com 0 20090848 2011-09-28 08:41:49
2860970 allstar-classic.do.am 0 182 2011-09-28 08:41:49
2860971 allphaseenv.com 1 No Rank 2011-09-28 08:41:53
2860972 automanijas.com 0 No Rank 2011-09-28 08:41:54
2860973 allisonenglish.com 2 5143618 2011-09-28 08:41:58
2860974 audionovel.net 0 26865453 2011-09-28 08:41:59
2860975 automatedbarcode.com 2 15015682 2011-09-28 08:42:07
2860976 automatic-chef.com 1 No Rank 2011-09-28 08:42:11
2860977 sxeysvideo.info 0 No Rank 2011-09-28 08:42:13
2860978 alphaland.com 2 14038712 2011-09-28 08:42:14
2860979 ds3.rambler.ru 0 178 2011-09-28 08:42:17
2860980 allieellisphotography.com 2 No Rank 2011-09-28 08:42:19
2860981 allieslimited.com 0 No Rank 2011-09-28 08:42:25
2860982 alliedprecisionarms.com 1 No Rank 2011-09-28 08:42:27
2860983 automaticcafe.com 3 8122475 2011-09-28 08:42:30
2860984 allfloridasigns.com 0 No Rank 2011-09-28 08:42:32
2860985 wwe.ecsusa.com 0 285011 2011-09-28 08:42:36
2860986 allenremodeling.com 3 No Rank 2011-09-28 08:42:38
2860987 allcreaturesreiki.net 0 No Rank 2011-09-28 08:42:39
2860988 automatyczny-biznes.pl 3 No Rank 2011-09-28 08:42:42
2860989 allcityappliance.com 2 4895212 2011-09-28 08:42:45
2860990 allcomputertips.com 0 547595 2011-09-28 08:42:45
2860991 superautko.com 1 No Rank 2011-09-28 08:42:45
2860992 automaticfirefighting.com 0 No Rank 2011-09-28 08:42:50
2860993 alkohole.szczecin.firmy-24h.pl 0 3548682 2011-09-28 08:42:53
2860994 alkmania-d1.nl 0 No Rank 2011-09-28 08:42:53
2860995 shaftenberg.de 2 No Rank 2011-09-28 08:42:55
2860996 albanygatokyo.com 1 No Rank 2011-09-28 08:42:58
2860997 alaskahighwayarchives.ca 4 12004794 2011-09-28 08:42:59
2860998 alaskablacktaildeerhunt.com 1 7335300 2011-09-28 08:43:01
2860999 alarmsystemskingston.com 2 No Rank 2011-09-28 08:43:03